Temp
-7 -7 -7 -7 -7 -8 -6 -6 -6 -5 -5 -5 -6 -6 -5 -4 -5 -6 -4 -4 -5 -5 -5 -6 -6 -6 -6 -6 -6 -6 -6 -5 -5 -5 -6 -6 -7 -7 -7 -7 -7 -7 -7 -7 -7 -7 -7 -7 -7
-7 -7 -7 -6 -8 -7 -7 -7 -6 -5 -4 -5 -5 -5 -5 -5 -5 -6 -5 -5 -5 -6 -6 -6 -6 -6 -6 -6 -6 -6 -6 -6 -6 -6 -7 -7 -7 -7 -7 -7 -7 -7 -7 -7 -7 -7 -7 -7 -7
-7 -7 -6 -7 -7 -6 -6 -7 -6 -5 -4 -4 -5 -4 -4 -5 -5 -6 -5 -5 -5 -6 -5 -5 -6 -6 -6 -6 -6 -6 -6 -6 -6 -7 -7 -7 -7 -7 -7 -7 -7 -7 -7 -7 -7 -7 -7 -8 -8
-7 -7 -7 -8 -7 -6 -6 -6 -6 -5 -5 -4 -5 -5 -5 -5 -6 -5 -5 -5 -6 -6 -6 -6 -6 -7 -7 -7 -7 -7 -7 -7 -7 -7 -7 -7 -8 -7 -7 -7 -7 -7 -7 -8 -8 -8 -8 -8 -8
-7 -8 -8 -7 -7 -7 -6 -5 -5 -5 -5 -5 -5 -5 -6 -5 -6 -6 -6 -6 -6 -6 -6 -6 -7 -7 -7 -7 -7 -7 -7 -7 -7 -7 -8 -8 -8 -7 -7 -7 -7 -7 -7 -7 -8 -8 -8 -8 -8
-7 -7 -6 -7 -7 -7 -7 -5 -6 -5 -5 -5 -5 -5 -6 -5 -6 -6 -6 -7 -7 -7 -7 -7 -7 -7 -7 -7 -7 -7 -8 -8 -8 -8 -8 -8 -8 -8 -8 -8 -8 -7 -7 -8 -7 -7 -8 -8 -8
-7 -6 -7 -8 -8 -7 -6 -6 -6 -6 -6 -5 -5 -6 -5 -6 -6 -6 -6 -7 -7 -7 -7 -8 -8 -8 -8 -8 -8 -8 -8 -8 -8 -9 -9 -9 -8 -8 -8 -8 -8 -8 -8 -8 -8 -8 -8 -8 -8
-7 -7 -7 -7 -8 -7 -6 -6 -5 -5 -5 -5 -5 -5 -5 -6 -6 -7 -7 -7 -7 -8 -8 -8 -8 -8 -8 -8 -8 -8 -8 -9 -9 -9 -9 -9 -9 -9 -9 -9 -9 -9 -9 -9 -8 -8 -8 -8 -8
-6 -7 -7 -7 -7 -6 -5 -4 -4 -5 -5 -5 -5 -5 -6 -6 -7 -7 -7 -8 -8 -8 -9 -9 -8 -8 -8 -8 -8 -8 -9 -9 -9 -9 -9 -9 -9 -9 -9 -9 -9 -9 -9 -9 -9 -8 -8 -9 -8
-6 -8 -7 -6 -7 -6 -6 -5 -5 -5 -5 -5 -5 -5 -5 -6 -6 -7 -8 -9 -9 -9 -9 -9 -9 -9 -9 -9 -9 -9 -9 -9 -9 -9 -9 -9 -9 -9 -9 -9 -9 -9 -9 -9 -9 -9 -9 -9 -8
-7 -7 -6 -7 -6 -7 -5 -4 -5 -4 -5 -5 -5 -6 -5 -6 -6 -7 -8 -8 -9 -9 -9 -9 -9 -9 -9 -9 -9 -9 -9 -9 -9 -9 -9 -9 -9 -9 -9 -9 -9 -9 -9 -9 -9 -9 -9 -9 -9
-7 -7 -7 -6 -6 -6 -5 -6 -5 -5 -5 -5 -5 -6 -6 -6 -6 -7 -7 -8 -8 -9 -9 -9 -9 -9 -9 -9 -8 -8 -8 -8 -8 -8 -9 -9 -9 -8 -8 -8 -9 -9 -9 -9 -9 -9 -9 -9 -9
-8 -7 -8 -7 -6 -5 -6 -5 -5 -5 -5 -5 -5 -6 -6 -6 -6 -7 -7 -8 -8 -8 -8 -8 -8 -8 -8 -8 -8 -8 -7 -8 -8 -8 -8 -8 -8 -8 -8 -8 -8 -9 -9 -9 -9 -9 -9 -9 -9
-7 -7 -7 -7 -7 -5 -5 -5 -5 -5 -5 -5 -5 -6 -6 -6 -6 -6 -7 -7 -7 -7 -8 -7 -7 -7 -7 -7 -7 -7 -7 -7 -7 -7 -8 -8 -8 -8 -8 -8 -8 -8 -8 -8 -8 -8 -9 -9 -9
-7 -7 -7 -7 -6 -5 -5 -5 -5 -5 -5 -5 -5 -6 -6 -6 -6 -6 -7 -7 -7 -7 -7 -7 -7 -7 -7 -6 -6 -6 -7 -7 -7 -7 -7 -8 -7 -8 -8 -8 -8 -8 -8 -8 -8 -8 -8 -8 -8
-7 -7 -7 -6 -6 -6 -5 -5 -4 -5 -5 -5 -5 -6 -6 -6 -6 -6 -7 -7 -7 -7 -7 -7 -7 -7 -7 -7 -7 -7 -7 -7 -7 -7 -7 -7 -7 -7 -7 -7 -7 -7 -8 -8 -8 -8 -8 -8 -8
-7 -7 -7 -7 -6 -6 -6 -6 -5 -5 -5 -5 -5 -5 -6 -6 -6 -7 -7 -7 -7 -7 -7 -7 -7 -7 -7 -7 -7 -7 -7 -7 -7 -7 -7 -7 -7 -7 -7 -7 -7 -7 -7 -7 -7 -7 -8 -8 -8
-6 -7 -7 -7 -7 -6 -6 -5 -6 -6 -5 -5 -5 -5 -5 -6 -7 -6 -6 -6 -6 -6 -7 -7 -7 -7 -6 -7 -7 -7 -7 -7 -7 -7 -7 -7 -7 -7 -7 -7 -7 -7 -7 -7 -7 -7 -7 -8 -8
-7 -7 -6 -7 -6 -6 -6 -5 -6 -6 -6 -5 -6 -5 -5 -5 -6 -6 -6 -7 -6 -6 -7 -6 -7 -7 -7 -7 -7 -7 -7 -7 -7 -7 -7 -7 -7 -7 -7 -7 -7 -7 -7 -7 -7 -7 -7 -7 -7
-7 -7 -7 -6 -6 -7 -7 -7 -6 -6 -5 -6 -6 -6 -6 -5 -5 -6 -6 -6 -7 -7 -7 -7 -7 -7 -7 -6 -6 -6 -6 -6 -6 -7 -7 -7 -7 -7 -7 -7 -7 -7 -7 -7 -7 -8 -8 -7 -7
-6 -7 -6 -6 -7 -6 -7 -7 -6 -6 -6 -6 -6 -7 -6 -6 -5 -6 -6 -6 -7 -7 -7 -7 -7 -7 -6 -6 -6 -6 -6 -6 -6 -6 -7 -7 -7 -7 -7 -7 -7 -8 -8 -8 -8 -8 -8 -8 -8
-6 -6 -6 -6 -7 -6 -7 -7 -6 -7 -7 -7 -6 -6 -7 -6 -6 -6 -6 -6 -6 -7 -7 -7 -7 -7 -7 -7 -7 -6 -6 -6 -6 -6 -7 -7 -7 -7 -7 -7 -7 -8 -8 -8 -8 -8 -8 -8 -8
-7 -7 -7 -6 -7 -7 -7 -7 -7 -7 -6 -7 -8 -7 -6 -5 -6 -6 -6 -6 -7 -7 -7 -7 -7 -7 -6 -6 -6 -6 -6 -6 -6 -6 -6 -7 -7 -7 -7 -7 -7 -7 -8 -8 -8 -8 -8 -8 -8
-7 -7 -7 -6 -6 -6 -6 -7 -7 -7 -6 -7 -7 -6 -7 -6 -6 -5 -6 -7 -7 -7 -6 -7 -7 -7 -7 -7 -7 -7 -7 -7 -7 -7 -7 -7 -7 -7 -8 -8 -7 -7 -8 -8 -8 -8 -8 -8 -9
-7 -7 -7 -7 -7 -5 -6 -6 -7 -7 -7 -7 -7 -6 -6 -6 -6 -5 -6 -6 -7 -7 -7 -7 -7 -7 -7 -7 -7 -7 -7 -7 -7 -7 -7 -7 -7 -7 -8 -8 -8 -8 -8 -8 -8 -8 -8 -9 -9
-7 -7 -7 -7 -6 -6 -7 -6 -6 -7 -7 -7 -6 -7 -7 -7 -7 -6 -6 -6 -6 -7 -7 -8 -7 -7 -7 -7 -7 -7 -7 -7 -7 -8 -8 -8 -8 -7 -8 -8 -8 -8 -8 -8 -8 -8 -9 -9 -9
-7 -7 -6 -7 -7 -8 -6 -6 -6 -6 -6 -7 -7 -7 -7 -7 -7 -7 -7 -7 -6 -6 -7 -8 -7 -7 -7 -7 -7 -7 -7 -7 -8 -8 -8 -8 -8 -8 -8 -8 -8 -8 -8 -9 -9 -9 -9 -10 -10
-7 -7 -7 -7 -7 -7 -6 -6 -6 -6 -7 -7 -7 -7 -7 -7 -7 -8 -8 -6 -7 -6 -7 -8 -8 -7 -7 -7 -7 -7 -8 -8 -8 -8 -8 -8 -8 -8 -8 -8 -8 -8 -9 -9 -9 -10 -10 -10 -10
-7 -7 -7 -7 -7 -7 -6 -6 -7 -6 -8 -7 -7 -7 -7 -7 -8 -7 -8 -7 -7 -7 -7 -8 -8 -7 -7 -7 -7 -8 -8 -8 -9 -9 -8 -9 -9 -9 -8 -8 -8 -9 -9 -9 -9 -10 -10 -10 -10
-6 -7 -7 -7 -7 -7 -7 -7 -7 -7 -7 -7 -7 -7 -7 -7 -8 -8 -8 -7 -7 -7 -7 -8 -8 -8 -8 -8 -8 -8 -8 -8 -8 -8 -8 -8 -8 -8 -8 -8 -9 -9 -10 -10 -10 -10 -10 -10 -10
Height
5905 5903 5905 5903 5902 5903 5902 5899 5897 5898 5899 5898 5899 5896 5902 5903 5903 5907 5906 5907 5907 5908 5908 5908 5909 5910 5912 5912 5913 5914 5914 5914 5916 5916 5917 5918 5916 5918 5918 5920 5920 5921 5921 5921 5919 5919 5919 5919 5920
5910 5909 5909 5902 5903 5907 5906 5903 5899 5898 5901 5903 5905 5905 5907 5907 5902 5908 5909 5909 5910 5910 5910 5910 5911 5914 5915 5915 5916 5917 5917 5918 5918 5919 5919 5919 5919 5920 5921 5922 5922 5922 5922 5923 5923 5922 5921 5921 5922
5913 5913 5909 5904 5910 5911 5907 5906 5904 5899 5900 5904 5906 5907 5907 5909 5906 5911 5912 5912 5912 5913 5913 5914 5915 5916 5918 5918 5919 5920 5921 5921 5922 5922 5921 5921 5922 5923 5923 5925 5926 5925 5925 5925 5925 5924 5923 5923 5923
5914 5916 5913 5913 5912 5912 5910 5910 5909 5908 5908 5907 5908 5909 5909 5909 5911 5912 5913 5915 5914 5915 5916 5917 5918 5919 5920 5922 5921 5923 5923 5923 5924 5925 5924 5924 5925 5924 5925 5926 5927 5927 5926 5926 5927 5926 5925 5925 5924
5912 5913 5913 5916 5913 5913 5912 5912 5912 5912 5911 5912 5910 5912 5911 5912 5914 5915 5916 5917 5917 5919 5919 5920 5921 5921 5923 5923 5924 5926 5927 5927 5927 5927 5926 5925 5926 5927 5928 5928 5928 5928 5929 5929 5928 5926 5926 5926 5926
5913 5913 5913 5918 5917 5916 5913 5915 5914 5913 5912 5915 5913 5914 5913 5914 5915 5917 5918 5919 5920 5921 5922 5923 5923 5924 5925 5925 5927 5927 5927 5928 5928 5926 5926 5927 5929 5930 5930 5930 5930 5929 5928 5930 5929 5928 5927 5926 5926
5910 5913 5914 5923 5921 5920 5918 5917 5918 5916 5915 5916 5916 5917 5918 5917 5918 5920 5921 5921 5922 5923 5924 5924 5925 5925 5926 5927 5928 5928 5928 5928 5927 5926 5927 5929 5931 5932 5932 5931 5930 5929 5927 5929 5930 5928 5927 5927 5926
5916 5917 5917 5921 5921 5923 5920 5920 5920 5920 5920 5918 5918 5918 5920 5919 5920 5921 5923 5923 5924 5925 5925 5926 5927 5927 5928 5929 5929 5929 5929 5929 5927 5927 5928 5929 5933 5932 5931 5932 5930 5930 5927 5927 5929 5927 5926 5926 5926
5924 5923 5919 5918 5921 5925 5924 5921 5922 5922 5921 5921 5920 5921 5921 5921 5922 5923 5923 5924 5925 5926 5927 5927 5928 5929 5929 5930 5930 5930 5930 5930 5929 5928 5928 5930 5932 5931 5932 5931 5929 5928 5927 5927 5927 5927 5925 5924 5924
5920 5924 5922 5923 5921 5926 5929 5928 5924 5926 5924 5923 5921 5921 5922 5922 5922 5923 5925 5926 5927 5927 5928 5929 5929 5930 5931 5931 5931 5931 5931 5931 5930 5929 5929 5929 5931 5932 5930 5930 5928 5927 5924 5926 5926 5924 5924 5923 5922
5924 5924 5925 5928 5927 5927 5930 5930 5929 5926 5926 5925 5924 5922 5924 5924 5924 5925 5927 5927 5928 5929 5930 5931 5932 5933 5933 5932 5932 5932 5932 5932 5931 5929 5927 5927 5928 5929 5928 5926 5925 5924 5924 5925 5923 5922 5923 5920 5919
5931 5932 5929 5926 5931 5930 5931 5932 5931 5928 5928 5929 5926 5925 5925 5926 5926 5927 5928 5928 5929 5930 5931 5932 5933 5933 5933 5934 5934 5933 5932 5932 5931 5929 5928 5927 5925 5923 5923 5924 5924 5923 5922 5920 5920 5919 5919 5918 5917
5937 5935 5934 5926 5925 5930 5932 5929 5930 5930 5931 5930 5928 5927 5927 5928 5928 5929 5929 5929 5929 5931 5931 5931 5933 5933 5933 5934 5934 5934 5933 5932 5931 5930 5929 5927 5926 5924 5922 5922 5920 5919 5918 5917 5916 5915 5913 5914 5913
5934 5937 5933 5931 5931 5934 5933 5933 5934 5934 5933 5931 5929 5928 5929 5930 5930 5930 5930 5930 5930 5931 5931 5932 5933 5933 5933 5933 5934 5933 5932 5932 5931 5930 5928 5926 5925 5923 5922 5920 5918 5917 5915 5914 5912 5911 5910 5909 5909
5933 5935 5931 5932 5931 5932 5934 5934 5934 5934 5933 5930 5929 5929 5930 5931 5932 5932 5932 5932 5932 5931 5933 5933 5934 5933 5933 5933 5934 5933 5932 5931 5930 5929 5928 5926 5924 5923 5921 5918 5916 5915 5913 5911 5910 5909 5907 5906 5905
5933 5933 5933 5932 5930 5927 5931 5933 5933 5932 5932 5931 5930 5931 5932 5933 5934 5934 5934 5933 5933 5933 5933 5933 5933 5934 5934 5933 5932 5932 5931 5930 5929 5927 5926 5924 5923 5921 5919 5918 5916 5914 5913 5911 5909 5907 5904 5903 5901
5929 5931 5930 5931 5932 5933 5932 5932 5932 5931 5932 5933 5933 5933 5932 5933 5933 5934 5934 5934 5934 5934 5933 5934 5934 5934 5934 5933 5932 5931 5931 5929 5928 5927 5925 5923 5922 5921 5919 5917 5915 5912 5910 5908 5906 5903 5901 5900 5897
5927 5929 5929 5930 5933 5934 5933 5933 5933 5931 5932 5933 5935 5934 5933 5933 5933 5933 5934 5934 5934 5934 5934 5934 5934 5933 5934 5934 5932 5931 5930 5928 5927 5926 5924 5923 5921 5920 5918 5915 5913 5911 5908 5906 5903 5901 5897 5895 5893
5926 5928 5931 5927 5930 5932 5932 5930 5930 5930 5931 5931 5932 5935 5935 5934 5933 5933 5933 5933 5934 5934 5933 5933 5933 5934 5933 5932 5931 5930 5929 5927 5925 5924 5923 5921 5919 5917 5915 5913 5911 5908 5906 5903 5901 5898 5895 5890 5888
5925 5928 5929 5931 5927 5929 5930 5928 5929 5929 5930 5929 5931 5933 5936 5935 5934 5932 5932 5932 5932 5933 5933 5933 5933 5933 5932 5930 5929 5928 5926 5924 5923 5921 5919 5917 5916 5914 5912 5909 5907 5905 5902 5899 5897 5894 5891 5886 5882
5922 5929 5930 5930 5928 5929 5926 5925 5927 5928 5926 5929 5931 5929 5930 5932 5932 5931 5931 5932 5932 5931 5931 5930 5930 5930 5929 5927 5926 5926 5925 5924 5922 5920 5918 5915 5912 5910 5908 5905 5903 5900 5897 5895 5892 5888 5884 5881 5876
5919 5924 5928 5930 5921 5919 5923 5925 5925 5924 5924 5925 5925 5924 5926 5928 5927 5928 5928 5928 5929 5929 5929 5928 5928 5927 5926 5926 5925 5923 5922 5921 5919 5917 5915 5913 5910 5907 5904 5901 5898 5895 5891 5888 5885 5882 5879 5876 5872
5915 5919 5921 5925 5925 5925 5922 5921 5922 5921 5922 5921 5919 5919 5922 5925 5926 5926 5926 5926 5926 5926 5926 5926 5925 5924 5924 5923 5921 5919 5918 5916 5914 5912 5909 5908 5905 5903 5899 5895 5892 5888 5885 5882 5879 5875 5871 5868 5864
5913 5914 5916 5920 5921 5918 5921 5920 5917 5917 5921 5922 5918 5912 5916 5919 5925 5926 5925 5924 5924 5924 5923 5923 5923 5922 5920 5919 5917 5915 5914 5912 5910 5908 5905 5903 5900 5898 5895 5892 5889 5885 5880 5875 5871 5868 5864 5860 5856
5905 5908 5911 5913 5914 5913 5916 5915 5914 5916 5917 5915 5914 5914 5913 5914 5916 5922 5922 5921 5922 5922 5919 5919 5918 5916 5915 5914 5913 5911 5909 5908 5905 5903 5900 5898 5895 5893 5890 5885 5881 5877 5872 5868 5863 5860 5856 5852 5848
5897 5902 5905 5907 5910 5911 5911 5911 5911 5912 5913 5911 5913 5914 5914 5909 5907 5906 5910 5914 5916 5916 5917 5912 5911 5911 5910 5909 5908 5907 5905 5903 5901 5898 5895 5892 5888 5885 5882 5878 5874 5870 5865 5860 5856 5852 5848 5843 5840
5895 5897 5903 5905 5907 5907 5909 5908 5908 5909 5909 5906 5906 5907 5906 5908 5903 5901 5903 5906 5912 5910 5912 5909 5904 5906 5904 5903 5902 5901 5899 5897 5894 5890 5888 5884 5881 5877 5874 5871 5866 5862 5857 5852 5848 5844 5839 5835 5831
5891 5896 5899 5898 5900 5902 5906 5905 5903 5901 5900 5902 5902 5903 5902 5900 5896 5892 5897 5904 5908 5904 5906 5905 5900 5900 5898 5897 5896 5895 5893 5891 5888 5885 5881 5877 5873 5870 5866 5863 5859 5855 5850 5845 5840 5835 5829 5826 5821
5886 5888 5892 5896 5898 5900 5903 5900 5901 5901 5899 5901 5903 5903 5901 5899 5898 5894 5897 5900 5898 5904 5900 5898 5896 5894 5892 5892 5889 5887 5885 5884 5881 5877 5872 5869 5866 5862 5859 5856 5851 5846 5841 5836 5831 5826 5821 5815 5810
5882 5883 5886 5888 5892 5895 5896 5896 5892 5896 5896 5894 5893 5894 5898 5899 5897 5898 5895 5892 5893 5898 5890 5892 5891 5888 5886 5885 5883 5880 5878 5876 5873 5869 5864 5862 5858 5856 5852 5848 5842 5837 5832 5827 5822 5817 5812 5806 5800
Wind_Speed
22 28 21 19 21 17 22 9 8 6 8 13 18 19 15 11 21 17 18 16 18 15 16 17 16 16 14 14 13 12 11 10 8 6 6 4 6 6 7 6 5 3 2 4 5 6 4 5 7
25 23 15 18 15 13 8 9 5 13 10 14 14 19 16 15 26 15 16 16 15 14 15 16 16 14 13 13 12 11 11 9 7 5 7 5 6 5 6 6 4 4 1 1 2 3 3 6 7
22 15 16 21 10 4 11 9 4 6 12 14 18 16 20 16 21 16 15 15 17 14 14 14 14 12 11 9 8 7 6 5 4 4 5 5 4 4 5 6 6 4 0 2 2 1 3 5 7
25 15 15 7 14 4 10 12 11 11 11 15 16 13 17 16 15 14 14 13 15 14 13 13 12 11 10 8 7 7 6 6 5 4 4 4 5 5 5 4 4 5 4 2 2 1 3 3 4
25 22 18 2 5 10 9 9 9 8 7 12 12 11 13 14 13 11 12 12 13 12 12 11 10 10 8 7 7 6 6 7 8 7 6 5 4 5 5 6 6 5 6 5 5 3 2 3 3
27 28 25 11 16 10 6 9 8 9 11 11 14 13 12 14 14 11 12 13 13 13 12 12 11 10 9 9 8 8 10 10 10 8 6 5 6 6 6 5 6 6 7 6 6 6 5 3 5
23 30 28 8 16 12 8 9 8 10 12 11 15 12 11 16 14 13 13 14 15 13 12 12 13 13 12 12 11 12 12 12 11 9 9 9 10 9 8 7 6 7 7 8 8 7 5 6 5
21 13 11 18 13 5 5 11 10 13 13 15 15 15 15 16 16 15 14 12 11 12 12 14 15 14 13 11 10 8 7 8 8 8 8 8 11 9 6 9 7 7 7 6 6 6 6 6 7
23 10 7 14 13 12 4 11 12 10 11 12 11 12 13 15 14 14 15 14 14 14 14 12 12 10 12 10 8 7 5 4 5 8 10 10 11 9 6 6 8 10 8 9 8 6 8 8 8
24 16 9 6 9 7 4 9 13 10 8 9 10 9 11 11 11 13 13 15 15 18 19 19 18 16 14 15 16 15 14 12 10 8 9 9 8 9 12 9 10 12 12 14 12 9 11 13 12
19 18 6 5 6 3 2 9 7 3 6 8 7 7 9 9 8 10 12 13 16 15 14 13 13 13 13 13 13 13 12 10 10 11 12 13 11 10 11 14 13 13 14 14 15 13 11 14 12
15 16 12 19 14 6 11 5 5 1 4 5 5 7 5 7 7 6 9 10 11 10 9 9 9 10 10 10 11 10 10 10 10 11 12 13 16 17 15 14 14 14 15 16 13 15 15 14 15
14 10 11 22 18 7 10 5 4 2 3 4 5 5 5 4 5 5 6 7 8 8 6 7 8 7 9 8 7 8 10 10 9 11 13 14 15 15 16 16 15 16 15 15 15 13 15 15 16
13 7 15 12 15 9 3 3 1 1 2 5 6 4 3 4 5 6 6 5 4 6 5 5 8 7 7 7 8 10 12 13 13 12 12 14 14 15 16 17 19 18 17 15 15 17 16 16 17
8 10 16 11 11 6 5 3 4 2 2 5 8 7 6 7 8 7 6 5 4 5 6 4 6 6 7 7 9 10 11 12 12 12 12 12 13 12 15 17 17 17 17 18 17 17 18 19 19
12 14 11 2 15 20 18 14 4 5 5 4 8 9 9 8 7 7 6 4 4 4 4 4 5 7 6 6 8 10 11 12 14 15 14 14 13 14 14 16 17 17 18 18 19 19 18 19 20
18 9 10 9 8 12 15 16 7 5 4 4 3 6 8 9 8 8 8 4 2 3 3 4 5 5 6 7 8 10 11 12 13 13 13 13 13 13 12 14 15 16 18 19 20 21 22 22 22
19 18 20 19 14 10 13 17 13 8 8 6 4 3 6 6 5 6 7 6 5 5 4 5 5 6 7 7 9 10 11 12 13 14 15 14 13 11 12 14 14 15 18 19 22 24 26 24 23
8 8 14 20 19 13 16 16 16 18 8 5 9 11 4 3 3 3 6 6 5 5 5 6 7 7 9 9 10 11 13 14 15 16 16 17 16 16 15 15 16 18 19 20 21 23 26 28 28
14 20 20 13 18 22 11 16 23 32 5 5 10 12 14 7 1 3 4 4 4 4 4 5 6 6 7 10 13 14 15 16 18 19 20 21 20 19 19 19 19 20 20 22 23 25 26 28 29
23 20 14 17 20 24 13 19 27 17 21 15 13 17 18 12 7 2 2 1 2 4 6 8 8 9 11 12 15 16 15 15 16 18 20 22 23 24 23 23 23 24 25 25 25 26 28 29 31
29 20 26 15 28 18 24 23 22 19 23 18 22 6 10 13 12 10 5 3 5 6 8 10 10 10 11 12 13 15 16 15 17 19 20 21 23 24 25 26 27 28 29 30 30 30 31 31 32
28 27 27 28 19 24 22 25 26 26 25 23 19 18 16 11 16 15 10 7 8 9 11 11 13 13 14 15 17 17 18 20 21 22 24 25 26 26 27 30 31 32 33 33 33 34 35 35 35
22 27 22 32 28 33 35 30 28 31 23 24 30 20 23 18 14 16 17 14 11 13 13 14 15 15 16 18 19 20 21 22 23 23 25 27 27 27 28 30 30 32 33 34 34 35 36 37 38
31 27 24 24 29 17 9 25 25 28 26 26 22 26 26 17 24 20 12 14 13 13 19 20 22 21 21 21 19 20 22 24 27 27 27 28 30 30 30 32 32 32 34 34 35 36 37 39 39
28 29 28 29 14 4 11 17 23 25 28 28 29 27 30 33 34 22 26 20 9 10 16 24 22 22 22 21 22 21 24 25 26 27 29 31 32 32 31 33 32 33 34 35 36 38 39 40 39
21 28 20 19 13 19 19 22 17 21 22 26 26 24 29 27 29 22 28 15 21 11 13 19 27 21 23 22 22 23 24 27 27 28 30 32 31 32 32 32 33 34 36 37 37 38 40 40 41
22 27 25 30 29 22 16 15 22 21 21 24 26 28 27 26 33 30 32 36 20 15 13 19 24 23 23 24 25 25 25 25 27 30 31 30 32 32 33 34 34 36 36 37 38 40 41 39 42
29 34 25 20 27 16 12 24 24 24 29 26 29 24 20 24 22 31 42 15 22 23 11 18 24 29 27 29 29 28 29 26 26 28 30 30 30 31 32 33 36 36 38 39 40 42 42 43 44
30 39 25 21 25 23 24 23 28 24 18 23 29 29 23 20 21 27 31 32 29 28 17 23 29 32 31 29 29 30 30 28 28 29 32 32 31 32 34 36 37 40 41 43 44 44 43 44 44
Wind_Direction
103 93 84 90 67 57 87 76 49 54 43 51 58 47 77 107 90 92 91 97 92 92 91 98 101 111 116 114 120 119 112 112 115 118 119 131 98 99 96 91 89 92 97 98 79 76 85 106 118
87 76 90 65 58 347 120 78 41 28 63 69 77 80 90 100 99 88 92 95 98 95 93 97 99 99 106 105 114 121 124 120 120 123 133 125 120 113 89 79 73 68 39 124 93 83 100 124 123
98 77 90 78 10 26 85 108 101 52 62 83 83 94 98 85 85 93 96 96 96 93 93 90 94 94 95 98 104 107 107 106 102 118 115 106 83 62 55 44 40 41 54 213 192 174 146 138 132
115 110 77 54 318 116 89 93 101 96 106 95 96 93 92 100 93 100 95 96 90 87 77 77 80 78 74 79 78 77 58 47 39 45 72 51 37 34 31 25 38 47 52 72 68 213 185 177 160
125 118 94 324 54 32 94 114 113 117 107 99 105 104 102 108 109 111 106 101 99 98 92 89 86 78 67 58 56 55 53 43 39 36 31 30 20 33 41 40 47 44 32 38 47 54 249 228 230
154 126 87 66 47 47 19 93 100 101 101 114 111 109 112 109 107 110 110 106 101 97 92 87 79 75 70 63 57 53 50 44 43 40 36 17 15 14 9 19 26 38 21 18 21 22 8 333 274
139 102 111 39 56 33 24 71 106 114 110 100 106 101 106 105 112 110 105 107 109 103 96 94 90 85 79 73 69 65 61 53 50 43 33 33 32 16 358 360 27 33 16 357 6 8 340 324 324
79 95 93 131 92 51 31 85 72 92 95 97 97 104 99 99 109 114 116 112 111 110 106 104 96 94 96 96 84 79 62 45 34 21 11 4 24 2 322 329 338 3 24 350 346 341 338 321 309
42 60 62 22 70 11 26 69 88 82 79 73 75 81 87 94 99 100 97 103 98 100 89 91 99 95 92 99 95 83 72 41 4 343 338 344 12 2 17 345 329 340 338 332 321 328 313 298 296
19 29 5 53 44 353 346 25 49 12 80 68 70 67 79 79 81 83 86 88 94 92 86 81 82 80 69 66 68 62 61 56 43 27 9 357 2 353 340 337 335 331 335 324 317 323 300 297 296
18 54 145 291 235 284 129 54 50 2 44 59 67 74 69 72 74 87 93 96 97 92 85 80 75 74 69 51 50 46 44 36 22 12 3 2 1 7 356 357 351 342 337 324 324 323 298 299 298
146 193 241 257 272 317 26 344 47 72 47 37 80 89 78 66 77 83 100 111 109 96 86 88 76 65 47 39 37 33 28 26 14 6 351 346 351 351 347 343 338 338 328 330 315 310 308 298 296
173 226 235 270 281 289 263 355 36 336 42 52 70 66 74 55 54 89 97 104 110 110 102 93 79 50 41 41 37 30 32 18 12 360 353 351 349 345 338 340 338 334 329 328 330 317 304 299 298
188 237 232 241 226 240 264 88 165 300 72 91 82 66 48 42 47 56 73 89 89 99 102 63 54 45 48 49 55 43 28 26 16 3 353 349 350 343 338 344 347 347 343 336 323 314 309 302 299
192 205 207 234 13 43 127 125 100 46 29 60 73 63 54 45 44 53 61 64 58 58 71 58 48 48 45 52 45 34 25 9 8 1 357 358 359 355 349 349 349 351 351 350 348 336 323 313 306
207 224 223 83 12 352 357 339 341 16 347 38 83 78 73 62 54 38 54 69 78 88 85 71 44 42 39 33 25 14 17 10 1 1 1 355 359 359 352 349 348 352 352 348 344 340 334 329 320
230 153 219 257 301 345 334 334 332 328 301 340 103 108 95 79 53 37 27 43 63 75 61 59 35 25 16 24 20 9 9 8 3 360 359 357 352 349 346 344 349 348 345 345 343 338 341 332 323
172 178 247 257 276 310 299 333 294 310 274 284 333 97 99 84 71 44 46 36 37 49 62 53 44 10 15 12 9 4 3 3 3 1 358 1 352 345 343 341 344 343 341 339 342 342 341 336 325
161 266 239 246 254 272 291 317 299 311 263 256 330 327 344 107 110 65 80 58 48 50 45 43 32 24 10 7 3 359 359 356 354 352 354 351 350 346 341 338 338 342 340 333 336 334 335 333 332
161 234 290 303 302 288 292 294 303 308 233 61 15 4 327 299 182 137 88 62 39 53 39 27 16 14 15 8 360 353 349 350 352 353 350 348 342 340 338 334 333 332 332 332 329 328 326 326 329
172 193 258 272 269 260 248 285 303 299 304 312 336 334 316 294 286 218 154 82 24 10 354 349 344 342 351 349 349 346 342 340 341 341 342 343 340 338 335 330 328 325 324 323 324 323 325 326 322
186 201 205 201 267 261 298 293 294 302 303 298 303 318 321 300 286 291 290 303 324 323 317 316 320 326 332 330 330 332 334 332 328 328 330 332 333 333 333 329 326 321 317 319 319 318 319 321 321
213 207 214 200 203 260 266 267 283 286 292 308 285 296 290 287 262 278 277 280 289 290 296 301 305 311 312 315 318 325 328 330 330 328 326 325 325 325 325 325 324 320 317 316 315 314 314 316 319
216 215 219 204 207 226 237 257 267 275 295 287 299 299 304 302 241 257 263 270 280 284 282 290 295 297 302 309 312 314 317 321 321 322 322 321 319 320 318 315 315 315 314 312 310 311 311 314 315
214 211 213 216 225 244 248 239 248 271 276 292 284 304 314 298 294 290 280 266 264 274 290 291 292 296 301 300 305 310 310 311 313 314 316 318 316 315 313 311 312 314 314 312 310 310 310 311 312
217 199 213 206 231 298 322 244 261 267 273 276 293 300 296 298 295 296 305 296 267 279 287 293 294 297 300 302 300 300 303 303 307 311 314 316 314 313 311 310 310 312 312 310 308 309 310 310 310
200 205 219 212 247 268 283 296 269 256 268 278 292 297 309 312 308 264 298 286 291 303 294 278 292 299 299 300 299 302 303 305 308 311 311 313 312 312 311 309 311 314 312 311 310 310 311 310 310
212 231 232 209 231 235 241 277 253 273 268 270 280 289 308 326 316 307 282 293 281 289 275 281 286 298 298 301 303 305 306 307 307 307 309 313 316 315 314 313 313 313 312 312 313 311 309 309 311
203 225 222 222 225 234 236 253 253 253 258 254 266 295 294 301 308 298 298 263 296 284 280 294 293 295 296 299 301 303 304 307 303 310 313 317 315 314 315 315 313 314 316 315 314 310 309 312 310
227 222 219 228 212 220 235 250 284 264 270 270 277 291 289 294 291 300 299 295 296 288 311 295 293 294 292 294 295 298 300 307 311 313 312 313 312 315 315 314 317 318 316 316 314 313 311 310 309